Showing default

GALILEO 6 (262), 40129

Orbit data source: Space-Track

GALILEO 6 (262), 40129 is a payload satellite owned by GNSS Agency (ESA) in MEO that was launched on Fri, 22 Aug 2014 UTC via a SOYUZ-ST-B launch vehicle from the French Guiana (FRGUI). Payload-class satellites include a variety of spacecraft equipped with specific instruments for various scientific and technological missions. These include communications satellites like Starlink; space stations such as the ISS; scientific satellites like the Hubble; Earth observation satellites from companies like Planet Labs, Umbra, and HawkEye 360; GPS; miniature CubeSats for education and research; and military/defense satellites.

Loading next visibility...
Identifier
40129, 2014-050B
Orbit
MEO
Country
Flag of ESAESA
Related business
Manufacturer
OHB
Mission
On reserve Civil Navigation
Bus & Motor
GALILEOSAT, AOCS
Mass
733 kg wet, 700 kg dry
Launch date (UTC)
2014-08-22 (11 years ago)
Launch vehicle
SOYUZ-ST-B
Launch site
French Guiana (FRGUI)
Object type
Payload
Rocket body
Debris
Shape & HBR
Box + 2 Pan, 7.4 m
Radar Cross Section
9.223 m², Large (>1 m²)

Expand to show TLE details & history
Last TLE update: 1 day ago

TLE from 1 day ago
0 GALILEO 6 (262)
1 40129U 14050B   25257.71231800 -.00000005  00000-0  00000-0 0  9995
2 40129  49.1914 283.7698 1640331 169.6425 194.2229  1.85520205 75379
Epoch: 2025-09-14T17:05Z
TLE epoch observation values (Epoch: 2025-09-14T17:05:44.275Z)
Latitude
0.00003°
Longitude
33.42369°
Altitude
26,081.181 km
Speed
3.211 km/s
True Right ascension
18h 55m 08s
True Declination
0° 00' 00"
Sunlit
Object was in daylight at epoch
Visualization orbit readout
Latitude
Unknown
Longitude
Unknown
Altitude
Unknown
Speed
Unknown
Apparent Right ascension
Unknown
Apparent Declination
Unknown
Sunlit
N/A
Visualization observer readout
Local Sidereal Time
19:09:15
Azimuth
Unknown
Elevation
Unknown
Doppler factor
Unknown
Orbital elements
Apogee altitude
26,188.797 km
Perigee altitude
17,010.269 km
Semi-major axis
27,977.67 km
Eccentricity
0.16403
Inclination
49.1914°
RAAN
283.7698°
Arg. of periapsis
169.6425°
True anomaly
190.37679°
Mean anomaly
194.2229°
Eccentric anomaly
192.2317°
Mean motion
0.46379 °/min
Orbital period
776.21 mins
BSTAR
0
Loading maneuver chart data...
Computing Atmospheric mass density...
Loading historical data...
Loading historical data...
Loading historical data...
Loading historical data...
Loading historical data...
Loading historical data...
Loading historical data...
Other satellites on launch #50 in the year 2014 (2014-08-22 UTC)

Documentation

Showing up to 5 results
|